Погода в Беловаре

Хорватия     45°54′00″N   16°50′20″E
темп.,
°C
ветер,
м/с
пор.,
м/с
влажн.,
%
обл.,
%
осадки,
мм/ч
давл.,
гПа
погр.,
м
17 августа, ср
ср1723:00+20юз22600 0.0 101115
02:00+18юз22750 0.0 101224
05:00+17юз22860 0.0 101228
08:00+22юз23670 0.0 1013197
11:00+30юз33410 0.0 10121030
14:00+34юз342519 0.0 10112494
17:00+34з34260 0.0 10102823
20:00+26зюз11455 0.0 101011
18 августа, чт
чт1823:00+23юз22510 0.0 101117
02:00+20ююз310703 0.0 1010179
05:00+20юз410630 0.0 1010173
08:00+24юз49530 0.0 1010250
11:00+34зюз6102617 0.0 10101383
14:00+37зюз682219 0.0 10092320
17:00+37зюз611209 0.0 10072652
20:00+28зюз333828 0.0 100836
19 августа, пт
пт1923:00+24зюз22545 0.0 100817
02:00+22юз11605 0.0 100811
05:00+18юз2284100 0.3 100922
08:00+21юз127497 0.3 101095
11:00+25з1555100 0.3 1008208
14:00+31юз36381 0.8 1007982
17:00+22всв368390 1.4 1008169
20:00+19сз22840 1.6 100920
20 августа, сб
сб2023:00+17зюз11894 0.1 101011
02:00+16с24955 0.7 101182
05:00+17ссз2798100 0.6 1011191
08:00+18с378982 0.6 1013280
11:00+25св335183 0.0 1013985
14:00+27сз544389 0.0 10131638
17:00+27ссз454081 0.0 10131511
20:00+23ссв48575 0.0 1014285
21 августа, вс
вс2123:00+18ссв22744 0.0 101516
02:00+16сз11814 0.0 101512
05:00+16зсз2283100 0.0 101536
08:00+21сз311633 0.0 1015566
11:00+27с710379 0.0 10142078
14:00+30с792847 0.0 10132575
17:00+28св68357 0.0 10121814
20:00+22всв36530 0.0 1013123